STARLINK-32124 (60298 NORAD) Tracking and Keplerian Element Data

This shows tracking and keplerian element data for the satellite.

Feedback or suggestion? Click here.




ElementValue
Catalog60298
NameSTARLINK-32124
Epoch Orbit1301
Epoch Day286.68373627
Epoch Year2024
RAAN275.5248
Inclination53.1583
Eccentricity0.0001366
Argument of Perigee101.7902
Mean Anonmoly258.3252
Mean Motion15.30208498
Decay Rate3.767E-05
L11 60298U 24132W 24286.68373627 .00003767 00000+0 13922-3 0 9993
L22 60298 53.1583 275.5248 0001366 101.7902 258.3252 15.30208498 13013



Live tracking and technical data element details for STARLINK-32124 (NORAD 60298). STARLINK-32124 can be tracked NOW for your location showing map with azimuth and elevation plus other details from your city location.







IsCatalogInMostPopularTable: catalog: 60298, numindb: 11
Update: records affected: 1



GetName: 60298 STARLINK-32124

Hit Count: updated at: Thu, 23 Jan 2025 18:16:31 GMT